Flag for U.S.A. Weather past 2 weeks in Kennebunk, Maine, U.S.A.

45 °F

Low clouds.

Feels Like: 45 °F
Forecast: 42 / 59 °F
Wind: No wind

Location: Sanford Municipal

Current Time: Nov 27, 2015 at 12:20:44 AM

Latest Report: Nov 26, 2015 at 11:35 PM

Visibility: 7 mi

Pressure: 30.60 "Hg

Humidity: 87%

Dew point: 41 °F

Location of KennebunkLocation

Historic Weather in Kennebunk — Graph


Kennebunk temperature yesterday

Maximum temperature yesterday: 54 °F (at 1:35 PM)
Minimum temperature yesterday: 19 °F (at 2:15 AM)
Average temperature yesterday: 39 °F

Past Weeks' High & Low Weather Summary

High59 °F (Nov 13, 11:15 AM)93% (Nov 12, 2:15 PM)30.87 "Hg (Nov 12, 2:15 PM)
Low14 °F (Nov 18, 5:35 AM)24% (Nov 23, 12:35 PM)29.37 "Hg (Nov 13, 3:35 AM)
Average38 °F66%30.17 "Hg
* Reported Nov 11 10:35 PM — Nov 26 10:35 PM, Kennebunk, Weather by CustomWeather, © 2015

Note: Actual official high and low records may vary slightly from our data, if they occured in-between our weather recording intervals... More about our weather records


Kennebunk weather history for previous 24 hours

Time TempWeatherWind HumidityBarometerVisibility
10:35 PM
Thu, Nov 26
43 °FLow clouds.No wind87%30.62 "Hg1 mi
10:15 PM45 °FPassing clouds.No wind81%30.62 "Hg10 mi
9:55 PM46 °FPassing clouds.3 mph87%30.62 "Hg10 mi
9:35 PM41 °FPassing clouds.7 mph87%30.63 "Hg5 mi
9:15 PM39 °FOvercast.3 mph87%30.64 "Hg9 mi
8:55 PM39 °FOvercast.No wind87%30.66 "Hg10 mi
8:35 PM39 °FPassing clouds.No wind87%30.66 "Hg5 mi
8:15 PM43 °FClear.No wind87%30.67 "Hg8 mi
7:55 PM45 °FClear.No wind81%30.67 "Hg10 mi
7:15 PM45 °FPassing clouds.5 mph81%30.67 "Hg10 mi
6:55 PM45 °FClear.5 mph81%30.67 "Hg10 mi
6:35 PM45 °FClear.3 mph81%30.68 "Hg10 mi
5:55 PM39 °FClear.5 mph81%30.68 "Hg10 mi
5:15 PM37 °FClear.5 mph87%30.69 "Hg8 mi
4:55 PM41 °FClear.No wind81%30.69 "Hg10 mi
4:35 PM46 °FClear.3 mph76%30.69 "Hg10 mi
3:55 PM50 °FSunny.6 mph71%30.70 "Hg10 mi
3:35 PM52 °FSunny.5 mph67%30.70 "Hg10 mi
3:15 PM52 °FPassing clouds.6 mph67%30.70 "Hg10 mi
2:55 PM54 °FPartly sunny.9 mph58%30.71 "Hg10 mi
2:35 PM52 °FPartly sunny.9 mph62%30.71 "Hg10 mi
1:55 PM54 °FPartly sunny.6 mph63%30.71 "Hg10 mi
1:35 PM54 °FMostly cloudy.7 mph58%30.72 "Hg10 mi
1:15 PM52 °FMore clouds than sun.6 mph62%30.74 "Hg10 mi
12:55 PM52 °FCloudy.8 mph67%30.75 "Hg10 mi
12:35 PM52 °FMore clouds than sun.10 mph62%30.76 "Hg10 mi
12:15 PM52 °FCloudy.9 mph62%30.77 "Hg10 mi
11:55 AM52 °FOvercast.6 mph62%30.78 "Hg10 mi
11:35 AM48 °FPartly sunny.8 mph66%30.79 "Hg10 mi
11:15 AM48 °FMore clouds than sun.6 mph62%30.81 "Hg10 mi
10:55 AM46 °FMostly cloudy.6 mph66%30.82 "Hg10 mi
10:35 AM45 °FMostly cloudy.5 mph66%30.83 "Hg10 mi
10:15 AM43 °FOvercast.5 mph71%30.84 "Hg10 mi
9:55 AM43 °FMostly cloudy.5 mph71%30.84 "Hg10 mi
9:35 AM43 °FOvercast.6 mph66%30.83 "Hg10 mi
9:15 AM41 °FOvercast.5 mph76%30.83 "Hg10 mi
8:55 AM39 °FOvercast.6 mph81%30.84 "Hg10 mi
8:35 AM39 °FOvercast.6 mph81%30.84 "Hg10 mi
8:15 AM37 °FOvercast.5 mph75%30.84 "Hg10 mi
7:55 AM34 °FOvercast.5 mph81%30.85 "Hg9 mi
7:35 AM32 °FOvercast.3 mph87%30.85 "Hg7 mi
7:15 AM32 °FOvercast.No wind87%30.85 "Hg8 mi
6:55 AM32 °FOvercast.No wind80%30.85 "Hg9 mi
6:35 AM30 °FOvercast.No wind80%30.85 "Hg10 mi
6:15 AM30 °FOvercast.No wind86%30.85 "Hg10 mi
5:55 AM30 °FOvercast.No wind93%30.85 "Hg10 mi
5:35 AM30 °FOvercast.No wind69%30.85 "Hg10 mi
5:15 AM30 °FOvercast.No wind80%30.85 "Hg10 mi
4:55 AM28 °FOvercast.No wind93%30.84 "Hg10 mi
4:35 AM28 °FOvercast.No wind74%30.84 "Hg10 mi
4:15 AM28 °FOvercast.No wind80%30.84 "Hg10 mi
3:55 AM27 °FOvercast.No wind86%30.84 "Hg10 mi
3:35 AM27 °FOvercast.No wind74%30.85 "Hg10 mi
2:55 AM21 °FOvercast.No wind86%30.85 "Hg10 mi
2:35 AM21 °FPassing clouds.No wind80%30.86 "Hg10 mi
2:15 AM19 °FClear.No wind86%30.86 "Hg10 mi
1:35 AM21 °FClear.No wind80%30.87 "Hg10 mi
12:55 AM21 °FPassing clouds.No wind68%30.87 "Hg10 mi
12:35 AM21 °FClear.No wind86%30.87 "Hg10 mi
Weather by CustomWeather, © 2015

See weather overviewHow to use our weather pages